RYR2362 EDDH-EDHH

Flight info

Callsign RYR2362
Flight time N/A
Altitude 5000
Route SOKWO1G/33 SOKWO
Aircraft B738/M-SDE2E3FGHIRWXY/LB1

Departure

Time 2026-04-24 14:18
Airport Hamburg Helmut Schmidt Airport (EDDH)

Arrival

Time N/A
Airport EDHH
Time Latitude Longitude Altitude Speed Heading
2026-04-24 14:05 53.63170 10.00350 61 ft 0 kts 86°
2026-04-24 14:12 53.63168 10.00330 61 ft 2 kts 85°
2026-04-24 14:12 53.63167 10.00302 61 ft 2 kts 86°
2026-04-24 14:12 53.63166 10.00275 61 ft 2 kts 85°
2026-04-24 14:13 53.63165 10.00248 61 ft 2 kts 86°
2026-04-24 14:13 53.63164 10.00223 61 ft 2 kts 85°
2026-04-24 14:13 53.63168 10.00197 61 ft 2 kts 130°
2026-04-24 14:13 53.63181 10.00182 61 ft 1 kts 168°
2026-04-24 14:14 53.63187 10.00181 61 ft 1 kts 181°
2026-04-24 14:14 53.63191 10.00181 61 ft 0 kts 177°
2026-04-24 14:16 53.63155 10.00184 61 ft 12 kts 176°
2026-04-24 14:16 53.63044 10.00159 61 ft 16 kts 210°
2026-04-24 14:17 53.62917 9.99977 61 ft 8 kts 242°
2026-04-24 14:17 53.62891 9.99893 61 ft 9 kts 242°
2026-04-24 14:17 53.63144 9.99501 62 ft 86 kts 332°
2026-04-24 14:18 53.63940 9.98815 66 ft 168 kts 333°
2026-04-24 14:18 53.65025 9.97867 808 ft 181 kts 332°
2026-04-24 14:18 53.66074 9.96939 1971 ft 170 kts 332°
2026-04-24 14:18 53.67167 9.95954 2296 ft 209 kts 332°
2026-04-24 14:19 53.68579 9.94967 2420 ft 243 kts 347°
2026-04-24 14:19 53.70240 9.94727 2512 ft 260 kts 359°
2026-04-24 14:19 53.71890 9.94698 4317 ft 236 kts 360°
2026-04-24 14:19 53.73536 9.94975 4703 ft 256 kts 18°
2026-04-24 14:20 53.74966 9.96476 4721 ft 252 kts 44°
2026-04-24 14:20 53.76157 9.98518 4802 ft 252 kts 46°
2026-04-24 14:20 53.77367 10.00623 4806 ft 251 kts 46°
2026-04-24 14:20 53.78371 10.03012 4777 ft 249 kts 65°
2026-04-24 14:21 53.79084 10.05613 4482 ft 250 kts 65°
2026-04-24 14:21 53.79813 10.08299 4232 ft 248 kts 65°
2026-04-24 14:21 53.80527 10.10935 3940 ft 251 kts 65°
2026-04-24 14:21 53.81256 10.13627 3568 ft 254 kts 65°
2026-04-24 14:22 53.81998 10.16366 3201 ft 257 kts 65°
2026-04-24 14:22 53.82741 10.19132 2864 ft 257 kts 68°
2026-04-24 14:22 53.82288 10.24509 2761 ft 232 kts 130°
2026-04-24 14:23 53.80998 10.25979 2767 ft 223 kts 164°
2026-04-24 14:23 53.79476 10.26052 2820 ft 225 kts 188°
2026-04-24 14:23 53.77940 10.25634 2809 ft 229 kts 189°
2026-04-24 14:23 53.76379 10.25120 2795 ft 228 kts 200°
2026-04-24 14:24 53.75131 10.23555 2829 ft 225 kts 230°
2026-04-24 14:24 53.74184 10.21578 2827 ft 217 kts 230°
2026-04-24 14:24 53.73229 10.19603 2849 ft 215 kts 230°
2026-04-24 14:24 53.72341 10.17777 2744 ft 219 kts 230°
2026-04-24 14:25 53.71378 10.15805 2477 ft 217 kts 230°
2026-04-24 14:25 53.70464 10.13938 2247 ft 197 kts 230°
2026-04-24 14:25 53.69632 10.12240 1946 ft 184 kts 230°
2026-04-24 14:25 53.68838 10.10620 1653 ft 173 kts 230°
2026-04-24 14:26 53.68109 10.09135 1414 ft 161 kts 230°
2026-04-24 14:26 53.67455 10.07801 1199 ft 148 kts 230°
2026-04-24 14:26 53.66826 10.06522 986 ft 138 kts 230°
2026-04-24 14:26 53.66255 10.05361 872 ft 141 kts 230°
2026-04-24 14:27 53.65660 10.04152 742 ft 145 kts 230°
2026-04-24 14:27 53.65028 10.02867 552 ft 146 kts 230°
2026-04-24 14:27 53.64423 10.01631 362 ft 146 kts 231°
2026-04-24 14:27 53.63812 10.00385 168 ft 145 kts 230°
2026-04-24 14:28 53.63181 9.99126 64 ft 134 kts 230°
2026-04-24 14:28 53.62619 9.97995 62 ft 137 kts 230°
2026-04-24 14:28 53.61953 9.96637 603 ft 159 kts 230°
2026-04-24 14:28 53.61169 9.95075 936 ft 203 kts 229°
2026-04-24 14:29 53.60102 9.92986 955 ft 266 kts 229°
2026-04-24 14:29 53.59076 9.90347 2070 ft 274 kts 248°
2026-04-24 14:29 53.58098 9.87747 2380 ft 257 kts 229°
2026-04-24 14:29 53.56971 9.85531 2530 ft 242 kts 229°
2026-04-24 14:30 53.55718 9.83625 3158 ft 250 kts 205°
2026-04-24 14:30 53.54118 9.82940 3881 ft 255 kts 182°
2026-04-24 14:30 53.52390 9.83548 3822 ft 260 kts 153°
2026-04-24 14:30 53.51152 9.85211 3805 ft 259 kts 128°
2026-04-24 14:31 53.50422 9.87901 3798 ft 256 kts 99°
2026-04-24 14:31 53.50536 9.90756 3803 ft 255 kts 71°
2026-04-24 14:31 53.51270 9.93443 3830 ft 256 kts 64°
2026-04-24 14:31 53.52182 9.95926 3778 ft 256 kts 45°
2026-04-24 14:32 53.53404 9.97869 3829 ft 257 kts 43°
2026-04-24 14:32 53.54709 9.99914 3810 ft 256 kts 43°
2026-04-24 14:32 53.56014 10.01958 3806 ft 256 kts 43°
2026-04-24 14:32 53.57191 10.04168 3805 ft 255 kts 52°
2026-04-24 14:33 53.58293 10.06469 3808 ft 257 kts 51°
2026-04-24 14:33 53.59420 10.08809 3809 ft 256 kts 51°
2026-04-24 14:33 53.60532 10.11121 3801 ft 252 kts 51°
2026-04-24 14:33 53.61622 10.13386 3741 ft 242 kts 51°
2026-04-24 14:34 53.62643 10.15511 3647 ft 233 kts 51°
2026-04-24 14:34 53.63665 10.17637 3492 ft 229 kts 51°
2026-04-24 14:34 53.64657 10.19702 3338 ft 227 kts 51°
2026-04-24 14:34 53.65637 10.21742 3282 ft 218 kts 51°
2026-04-24 14:35 53.66675 10.23485 3226 ft 208 kts 27°
2026-04-24 14:35 53.68050 10.23905 3286 ft 203 kts 349°
2026-04-24 14:35 53.69306 10.22865 3321 ft 209 kts 314°
2026-04-24 14:35 53.70020 10.20777 3339 ft 209 kts 287°
2026-04-24 14:36 53.70072 10.18362 3316 ft 209 kts 255°
2026-04-24 14:36 53.69682 10.16097 3168 ft 214 kts 253°
2026-04-24 14:36 53.69235 10.13613 2184 ft 246 kts 251°
2026-04-24 14:36 53.68588 10.10997 1696 ft 236 kts 240°
2026-04-24 14:37 53.67840 10.08697 1413 ft 216 kts 235°
2026-04-24 14:37 53.67010 10.06905 1210 ft 190 kts 231°
2026-04-24 14:37 53.66231 10.05313 929 ft 164 kts 230°
2026-04-24 14:37 53.65559 10.03945 672 ft 142 kts 230°
2026-04-24 14:38 53.64959 10.02727 476 ft 135 kts 230°
2026-04-24 14:38 53.64366 10.01523 355 ft 143 kts 230°
2026-04-24 14:38 53.62978 9.98697 161 ft 145 kts 231°
2026-04-24 14:39 53.62341 9.97415 791 ft 152 kts 229°
2026-04-24 14:39 53.61597 9.96064 1312 ft 167 kts 226°
2026-04-24 14:39 53.60691 9.94547 1614 ft 201 kts 224°
2026-04-24 14:39 53.59656 9.92683 2069 ft 239 kts 229°
2026-04-24 14:40 53.58525 9.90517 3145 ft 256 kts 229°
2026-04-24 14:40 53.57356 9.88278 3912 ft 271 kts 228°
2026-04-24 14:40 53.55884 9.86430 3717 ft 269 kts 201°
2026-04-24 14:40 53.54102 9.86019 3771 ft 261 kts 173°
2026-04-24 14:41 53.52455 9.87028 3791 ft 261 kts 146°
2026-04-24 14:41 53.51268 9.89227 3800 ft 262 kts 117°
2026-04-24 14:41 53.50942 9.92067 3779 ft 262 kts 83°
2026-04-24 14:41 53.51529 9.94792 3833 ft 261 kts 63°
2026-04-24 14:42 53.52104 9.96538 3802 ft 264 kts 55°
2026-04-24 14:42 53.53553 9.99808 3823 ft 263 kts 53°
2026-04-24 14:42 53.54655 10.02281 3809 ft 262 kts 53°
2026-04-24 14:42 53.55748 10.04735 3807 ft 262 kts 53°
2026-04-24 14:43 53.56829 10.07165 3808 ft 262 kts 53°
2026-04-24 14:43 53.57922 10.09620 3807 ft 262 kts 53°
2026-04-24 14:43 53.59015 10.12078 3807 ft 262 kts 53°
2026-04-24 14:43 53.60101 10.14521 3807 ft 262 kts 53°
2026-04-24 14:44 53.61230 10.16941 3808 ft 262 kts 51°
2026-04-24 14:44 53.62369 10.19332 3788 ft 259 kts 51°
2026-04-24 14:44 53.63502 10.21706 3409 ft 262 kts 51°
2026-04-24 14:44 53.64636 10.24085 3120 ft 260 kts 51°
2026-04-24 14:45 53.65754 10.26432 2856 ft 260 kts 51°
2026-04-24 14:45 53.66892 10.28821 2820 ft 259 kts 51°
2026-04-24 14:45 53.68307 10.30601 2779 ft 257 kts 16°
2026-04-24 14:45 53.70051 10.30610 2797 ft 257 kts 342°
2026-04-24 14:46 53.71448 10.28963 2767 ft 243 kts 308°
2026-04-24 14:46 53.72472 10.26783 2801 ft 234 kts 308°
2026-04-24 14:46 53.73479 10.24641 2811 ft 236 kts 308°
2026-04-24 14:46 53.74496 10.22468 2807 ft 238 kts 305°
2026-04-24 14:47 53.74844 10.20781 2652 ft 241 kts 259°
2026-04-24 14:47 53.73595 10.17933 2857 ft 238 kts 209°
2026-04-24 14:47 53.72024 10.17210 2745 ft 242 kts 193°
2026-04-24 14:47 53.70640 10.15723 2418 ft 243 kts 231°
2026-04-24 14:48 53.69868 10.13300 2111 ft 238 kts 244°
2026-04-24 14:48 53.68996 10.11029 1778 ft 225 kts 232°
2026-04-24 14:48 53.68086 10.09098 1562 ft 195 kts 231°
2026-04-24 14:48 53.67279 10.07445 1249 ft 173 kts 230°
2026-04-24 14:49 53.66558 10.05977 962 ft 156 kts 230°
2026-04-24 14:49 53.65927 10.04693 737 ft 143 kts 230°
2026-04-24 14:49 53.65306 10.03432 606 ft 141 kts 230°
2026-04-24 14:49 53.64697 10.02187 485 ft 143 kts 230°
2026-04-24 14:50 53.64078 10.00926 279 ft 143 kts 230°
2026-04-24 14:50 53.63447 9.99655 73 ft 144 kts 230°
2026-04-24 14:50 53.62867 9.98481 62 ft 103 kts 230°
2026-04-24 14:50 53.62621 9.97982 61 ft 39 kts 230°
2026-04-24 14:51 53.62449 9.97829 61 ft 25 kts 135°
2026-04-24 14:51 53.62434 9.97863 61 ft 2 kts 108°
2026-04-24 14:51 53.62432 9.97942 61 ft 12 kts 81°